COSMOS 1275 DEB

Satellite information

Favourite Embed

Satellite Type and Status

DEBRISIN ORBIT

Key statistics

Satellite COSMOS 1275 DEB at a glance.

Uptime

16105

Days in orbit

Revolutions

≈ 14.3

Per day

Orbit

LEO

Low Earth Orbit

Inclination

82.8

Latest

Satellite identification and parameters

Extended collection of information and parameters for COSMOS 1275 DEB.

Object identification

Identified? True

Debris? True

Object name: COSMOS 1275 DEB

International designator: 1981-053PX

Object number (NORAD): 42111

Object ID (CCSDS): 42111

Country: COMMONWEALTH OF INDEPENDENT STATES (CIS)

Current information (Y/N): Y

RCS size: SMALL

Orbital parameters

Period: 100.68 minutes

Inclination: 82.805 deg

SMA: 7168.947 km

Apoapsis: 818.626 km

Periapsis: 762.997 km

RAAN: 198.3648 deg

Eccentricy: 0.0038799

Argument of periapsis: 315.8784 deg

Mean anomaly: 43.9309 deg

Mean motion: 14.30275674 rev/day

Mean motion (dot): 0.00003017 rev/day2

B* drag term: 0.0011481 1/REarth

Two-line elements (TLE)

Creation date: July 7, 2025, 6:34 p.m.

Reference frame: TEME

Reference center: EARTH

Epoch: July 7, 2025, 12:03 a.m. UTC

TLE line 0: 0 COSMOS 1275 DEB

TLE line 1: 1 42111U 81053PX 25188.00211639 .00003017 00000-0 11481-2 0 9990

TLE line 2: 2 42111 82.8050 198.3648 0038799 315.8784 43.9309 14.30275674600389

Live tracking on map

Real-time ground track for satellite COSMOS 1275 DEB.

In-orbit conjunctions

A list of the most updated potential collisions computed for object COSMOS 1275 DEB.

Target Orbit TCA Probability of collision Miss distance Type
PSLV R/B SSO 2024-10-27 07:00:43 0.0001576762 147.0 (m) ROCKET BODY
CZ-6A DEB SSO 2024-08-31 08:58:56 0.0001027795 113.0 (m) DEBRIS

Associated space launch

Navigation satellite providing location information for the Tsiklon-B navigation system

COSMOS 1275 DEB was lifted into orbit during the mission ‘Kosmos-3M | Parus 27’, on board a Kosmos-3M space rocket.

The launch took place on June 4, 1981, 3:41 p.m. from 132/2.

For more information about the launch, click the button.

Launch to space Kosmos-3M | Parus 27
Kosmos-3M | Parus 27

Agency: N/A

Status: Launch Successful

Launch date: June 4, 1981, 3:41 p.m. UTC

Rocket: Kosmos-3M

Launch pad: 132/2

Location: Plesetsk Cosmodrome, Russian Federation

...

Latest news about this satellite

There are no fresh news available about this satellite. Check back as we update our databases every day.


Newsletter sign-up

Weekly statistics, charts and insights to help you stay on top of the space industry.